Time,TemperatureF,DewpointF,PressureIn,WindDirection,WindDirectionDegrees,WindSpeedMPH,WindSpeedGustMPH,Humidity,HourlyPrecipIn,Conditions,Clouds,dailyrainin,SoftwareType,DateUTC
2013-03-15 00:00:00,23.8,10.0,29.93,WNW,292,1.0,8.0,55,0.00,,,0.00,VWS V14.01,2013-03-15 04:00:00,
2013-03-15 00:10:00,23.7,10.3,29.93,NW,315,0.0,3.0,56,0.00,,,0.00,VWS V14.01,2013-03-15 04:10:00,
2013-03-15 00:20:00,23.5,10.1,29.93,NW,315,1.0,6.0,56,0.00,,,0.00,VWS V14.01,2013-03-15 04:20:00,
2013-03-15 00:30:00,23.5,10.5,29.93,NW,315,1.0,5.0,57,0.00,,,0.00,VWS V14.01,2013-03-15 04:30:00,
2013-03-15 00:40:00,23.4,11.2,29.93,WNW,292,1.0,3.0,59,0.00,,,0.00,VWS V14.01,2013-03-15 04:40:00,
2013-03-15 00:50:00,23.4,11.2,29.93,WNW,292,1.0,6.0,59,0.00,,,0.00,VWS V14.01,2013-03-15 04:50:00,
2013-03-15 01:00:00,23.3,11.5,29.93,NW,315,0.0,5.0,60,0.00,,,0.00,VWS V14.01,2013-03-15 05:00:00,
2013-03-15 01:10:00,23.1,12.0,29.93,NW,315,0.0,5.0,62,0.00,,,0.00,VWS V14.01,2013-03-15 05:10:00,
2013-03-15 01:20:00,22.9,12.2,29.93,NW,315,0.0,4.0,63,0.00,,,0.00,VWS V14.01,2013-03-15 05:20:00,
2013-03-15 01:30:00,22.8,12.1,29.93,WNW,292,0.0,3.0,63,0.00,,,0.00,VWS V14.01,2013-03-15 05:30:00,
2013-03-15 01:40:00,22.8,12.5,29.93,WNW,292,0.0,5.0,64,0.00,,,0.00,VWS V14.01,2013-03-15 05:40:00,
2013-03-15 01:50:00,22.9,12.6,29.94,WNW,292,1.0,8.0,64,0.00,,,0.00,VWS V14.01,2013-03-15 05:50:00,
2013-03-15 02:00:00,22.9,12.9,29.94,NW,315,0.0,5.0,65,0.00,,,0.00,VWS V14.01,2013-03-15 06:00:00,
2013-03-15 02:10:00,22.9,12.9,29.93,WNW,292,0.0,3.0,65,0.00,,,0.00,VWS V14.01,2013-03-15 06:10:00,
2013-03-15 02:20:00,22.9,13.3,29.93,NW,315,1.0,6.0,66,0.00,,,0.00,VWS V14.01,2013-03-15 06:20:00,
2013-03-15 02:30:00,22.9,13.6,29.93,NW,315,0.0,3.0,67,0.00,,,0.00,VWS V14.01,2013-03-15 06:30:00,
2013-03-15 02:40:00,23.1,13.1,29.93,WNW,292,1.0,9.0,65,0.00,,,0.00,VWS V14.01,2013-03-15 06:40:00,
2013-03-15 02:50:00,23.3,13.3,29.92,NW,315,1.0,7.0,65,0.00,,,0.00,VWS V14.01,2013-03-15 06:50:00,
2013-03-15 03:00:00,23.4,13.0,29.93,WSW,248,1.0,4.0,64,0.00,,,0.00,VWS V14.01,2013-03-15 07:00:00,
2013-03-15 03:10:00,23.7,13.0,29.93,NNW,338,1.0,8.0,63,0.00,,,0.00,VWS V14.01,2013-03-15 07:10:00,
2013-03-15 03:20:00,23.9,13.1,29.92,NW,315,1.0,7.0,63,0.00,,,0.00,VWS V14.01,2013-03-15 07:20:00,
2013-03-15 03:30:00,24.0,13.2,29.92,NNW,338,0.0,3.0,63,0.00,,,0.00,VWS V14.01,2013-03-15 07:30:00,
2013-03-15 03:40:00,24.1,13.3,29.92,NNW,338,0.0,3.0,63,0.00,,,0.00,VWS V14.01,2013-03-15 07:40:00,
2013-03-15 03:50:00,24.0,12.9,29.92,NW,315,0.0,2.0,62,0.00,,,0.00,VWS V14.01,2013-03-15 07:50:00,
2013-03-15 04:00:00,24.0,12.9,29.92,NW,315,0.0,3.0,62,0.00,,,0.00,VWS V14.01,2013-03-15 08:00:00,
2013-03-15 04:10:00,23.9,12.8,29.92,NNW,338,0.0,4.0,62,0.00,,,0.00,VWS V14.01,2013-03-15 08:10:00,
2013-03-15 04:20:00,23.8,12.3,29.92,WNW,292,1.0,7.0,61,0.00,,,0.00,VWS V14.01,2013-03-15 08:20:00,
2013-03-15 04:30:00,23.7,12.2,29.92,WNW,292,1.0,7.0,61,0.00,,,0.00,VWS V14.01,2013-03-15 08:30:00,
2013-03-15 04:40:00,23.6,11.8,29.92,NW,315,1.0,6.0,60,0.00,,,0.00,VWS V14.01,2013-03-15 08:40:00,
2013-03-15 04:50:00,23.7,11.5,29.92,WNW,292,1.0,7.0,59,0.00,,,0.00,VWS V14.01,2013-03-15 08:50:00,
2013-03-15 05:00:00,23.9,10.9,29.93,NW,315,2.0,11.0,57,0.00,,,0.00,VWS V14.01,2013-03-15 09:00:00,
2013-03-15 05:10:00,24.0,10.2,29.93,WNW,292,3.0,14.0,55,0.00,,,0.00,VWS V14.01,2013-03-15 09:10:00,
2013-03-15 05:20:00,24.0,9.8,29.93,NW,315,2.0,11.0,54,0.00,,,0.00,VWS V14.01,2013-03-15 09:20:00,
2013-03-15 05:30:00,23.8,10.0,29.93,NNW,338,1.0,7.0,55,0.00,,,0.00,VWS V14.01,2013-03-15 09:30:00,
2013-03-15 05:40:00,23.4,10.4,29.93,NW,315,1.0,6.0,57,0.00,,,0.00,VWS V14.01,2013-03-15 09:40:00,
2013-03-15 05:50:00,23.0,10.4,29.94,NW,315,0.0,3.0,58,0.00,,,0.00,VWS V14.01,2013-03-15 09:50:00,
2013-03-15 06:00:00,22.5,11.1,29.95,NNE,22,0.0,4.0,61,0.00,,,0.00,VWS V14.01,2013-03-15 10:00:00,
2013-03-15 06:10:00,22.2,11.2,29.95,North,0,0.0,3.0,62,0.00,,,0.00,VWS V14.01,2013-03-15 10:10:00,
2013-03-15 06:20:00,21.9,11.2,29.95,NNW,338,0.0,2.0,63,0.00,,,0.00,VWS V14.01,2013-03-15 10:20:00,
2013-03-15 06:30:00,21.6,11.3,29.96,North,0,0.0,5.0,64,0.00,,,0.00,VWS V14.01,2013-03-15 10:30:00,
2013-03-15 06:40:00,21.5,11.6,29.96,North,0,1.0,4.0,65,0.00,,,0.00,VWS V14.01,2013-03-15 10:40:00,
2013-03-15 06:50:00,21.4,11.5,29.96,NNW,338,1.0,3.0,65,0.00,,,0.00,VWS V14.01,2013-03-15 10:50:00,
2013-03-15 07:00:00,21.4,11.5,29.97,NNW,338,0.0,2.0,65,0.00,,,0.00,VWS V14.01,2013-03-15 11:00:00,
2013-03-15 07:10:00,21.3,11.7,29.96,NNW,338,0.0,3.0,66,0.00,,,0.00,VWS V14.01,2013-03-15 11:10:00,
2013-03-15 07:20:00,21.9,11.2,29.95,NNW,338,0.0,2.0,63,0.00,,OVC150,0.00,VWS V14.01,2013-03-15 11:20:00,
2013-03-15 07:30:00,21.8,11.9,29.97,NNW,338,0.0,2.0,65,0.00,,,0.00,VWS V14.01,2013-03-15 11:30:00,
2013-03-15 07:40:00,22.1,11.8,29.97,NNW,338,1.0,4.0,64,0.00,,,0.00,VWS V14.01,2013-03-15 11:40:00,
2013-03-15 07:50:00,22.5,11.8,29.97,NW,315,1.0,6.0,63,0.00,,,0.00,VWS V14.01,2013-03-15 11:50:00,
2013-03-15 08:00:00,22.7,12.0,29.97,NNW,338,1.0,3.0,63,0.00,,,0.00,VWS V14.01,2013-03-15 12:00:00,
2013-03-15 08:10:00,23.0,11.9,29.97,NNW,338,1.0,6.0,62,0.00,,,0.00,VWS V14.01,2013-03-15 12:10:00,
2013-03-15 08:20:00,23.3,11.9,29.97,WNW,292,0.0,4.0,61,0.00,,,0.00,VWS V14.01,2013-03-15 12:20:00,
2013-03-15 08:30:00,23.9,12.4,29.97,WNW,292,0.0,2.0,61,0.00,,,0.00,VWS V14.01,2013-03-15 12:30:00,
2013-03-15 08:40:00,24.5,11.5,29.97,WNW,292,1.0,6.0,57,0.00,,,0.00,VWS V14.01,2013-03-15 12:40:00,
2013-03-15 08:50:00,25.0,11.9,29.97,WNW,292,1.0,7.0,57,0.00,,,0.00,VWS V14.01,2013-03-15 12:50:00,
2013-03-15 09:00:00,25.7,11.8,29.97,NW,315,1.0,7.0,55,0.00,,,0.00,VWS V14.01,2013-03-15 13:00:00,
2013-03-15 09:10:00,26.1,11.3,29.96,North,0,2.0,7.0,53,0.00,,,0.00,VWS V14.01,2013-03-15 13:10:00,
2013-03-15 09:20:00,26.7,11.4,29.97,WNW,292,1.0,7.0,52,0.00,,,0.00,VWS V14.01,2013-03-15 13:20:00,
2013-03-15 09:30:00,27.5,11.3,29.96,NNW,338,1.0,7.0,50,0.00,,,0.00,VWS V14.01,2013-03-15 13:30:00,
2013-03-15 09:40:00,27.7,11.9,29.95,North,0,1.0,4.0,51,0.00,,,0.00,VWS V14.01,2013-03-15 13:40:00,
2013-03-15 09:50:00,28.6,12.3,29.95,North,0,1.0,6.0,50,0.00,,,0.00,VWS V14.01,2013-03-15 13:50:00,
2013-03-15 10:00:00,29.7,11.5,29.95,NW,315,2.0,7.0,46,0.00,,,0.00,VWS V14.01,2013-03-15 14:00:00,
2013-03-15 10:10:00,30.4,10.6,29.95,WNW,292,2.0,10.0,43,0.00,,,0.00,VWS V14.01,2013-03-15 14:10:00,
2013-03-15 10:20:00,30.6,10.2,29.94,NW,315,3.0,11.0,42,0.00,,,0.00,VWS V14.01,2013-03-15 14:20:00,
2013-03-15 10:30:00,31.3,10.9,29.94,NNE,22,1.0,6.0,42,0.00,,,0.00,VWS V14.01,2013-03-15 14:30:00,
2013-03-15 10:40:00,32.3,10.7,29.93,NW,315,2.0,11.0,40,0.00,,,0.00,VWS V14.01,2013-03-15 14:40:00,
2013-03-15 10:50:00,32.4,9.1,29.93,WNW,292,2.0,9.0,37,0.00,,,0.00,VWS V14.01,2013-03-15 14:50:00,
2013-03-15 11:00:00,33.5,9.4,29.92,WNW,292,2.0,10.0,36,0.00,,,0.00,VWS V14.01,2013-03-15 15:00:00,
2013-03-15 11:10:00,30.4,10.6,29.95,WNW,292,2.0,10.0,43,0.00,,OVC150,0.00,VWS V14.01,2013-03-15 15:10:00,
2013-03-15 11:20:00,35.0,10.1,29.92,SSW,202,1.0,13.0,35,0.00,,,0.00,VWS V14.01,2013-03-15 15:20:00,
2013-03-15 11:30:00,35.5,10.6,29.92,NW,315,2.0,7.0,35,0.00,,,0.00,VWS V14.01,2013-03-15 15:30:00,
2013-03-15 11:40:00,36.9,9.8,29.92,NE,45,1.0,6.0,32,0.00,,,0.00,VWS V14.01,2013-03-15 15:40:00,
2013-03-15 11:50:00,36.3,10.0,29.91,NW,315,2.0,7.0,33,0.00,,,0.00,VWS V14.01,2013-03-15 15:50:00,
2013-03-15 12:00:00,36.6,10.2,29.90,NW,315,1.0,6.0,33,0.00,,,0.00,VWS V14.01,2013-03-15 16:00:00,
2013-03-15 12:10:00,36.7,9.6,29.90,NNW,338,2.0,8.0,32,0.00,,,0.00,VWS V14.01,2013-03-15 16:10:00,
2013-03-15 12:20:00,37.4,8.8,29.89,NW,315,2.0,7.0,30,0.00,,,0.00,VWS V14.01,2013-03-15 16:20:00,
2013-03-15 12:30:00,37.7,10.5,29.89,SW,225,1.0,7.0,32,0.00,,,0.00,VWS V14.01,2013-03-15 16:30:00,
2013-03-15 12:40:00,38.5,9.0,29.88,NNW,338,2.0,7.0,29,0.00,,,0.00,VWS V14.01,2013-03-15 16:40:00,
2013-03-15 12:50:00,38.7,9.2,29.86,NW,315,2.0,8.0,29,0.00,,,0.00,VWS V14.01,2013-03-15 16:50:00,
2013-03-15 13:00:00,39.0,8.7,29.86,NNE,22,2.0,12.0,28,0.00,,,0.00,VWS V14.01,2013-03-15 17:00:00,
2013-03-15 13:10:00,39.8,11.6,29.85,WSW,248,2.0,8.0,31,0.00,,,0.00,VWS V14.01,2013-03-15 17:10:00,
2013-03-15 13:20:00,39.8,8.6,29.85,NW,315,3.0,8.0,27,0.00,,,0.00,VWS V14.01,2013-03-15 17:20:00,
2013-03-15 13:30:00,39.2,9.6,29.85,South,180,3.0,11.0,29,0.00,,,0.00,VWS V14.01,2013-03-15 17:30:00,
2013-03-15 13:40:00,38.5,9.0,29.88,NNW,338,2.0,7.0,29,0.00,,OVC150,0.00,VWS V14.01,2013-03-15 17:40:00,
2013-03-15 13:50:00,38.7,9.2,29.86,NW,315,2.0,8.0,29,0.00,,OVC150,0.00,VWS V14.01,2013-03-15 17:50:00,
2013-03-15 14:00:00,39.0,10.2,29.83,NW,315,2.0,8.0,30,0.00,,,0.00,VWS V14.01,2013-03-15 18:00:00,
2013-03-15 14:10:00,39.5,11.4,29.81,NE,45,2.0,12.0,31,0.00,,,0.00,VWS V14.01,2013-03-15 18:10:00,
2013-03-15 14:20:00,39.5,10.6,29.81,South,180,2.0,13.0,30,0.00,,,0.00,VWS V14.01,2013-03-15 18:20:00,
2013-03-15 14:30:00,39.4,11.3,29.80,North,0,1.0,7.0,31,0.00,,,0.00,VWS V14.01,2013-03-15 18:30:00,
2013-03-15 14:40:00,38.8,13.5,29.80,SSW,202,3.0,13.0,35,0.00,,,0.00,VWS V14.01,2013-03-15 18:40:00,
2013-03-15 14:50:00,39.0,12.4,29.79,SSW,202,1.0,5.0,33,0.00,,,0.00,VWS V14.01,2013-03-15 18:50:00,
2013-03-15 15:00:00,38.9,11.6,29.78,South,180,2.0,10.0,32,0.00,,,0.00,VWS V14.01,2013-03-15 19:00:00,
2013-03-15 15:10:00,39.4,12.0,29.78,SSE,158,1.0,7.0,32,0.00,,,0.00,VWS V14.01,2013-03-15 19:10:00,
2013-03-15 15:20:00,40.7,13.9,29.78,NNE,22,2.0,9.0,33,0.00,,,0.00,VWS V14.01,2013-03-15 19:20:00,
2013-03-15 15:30:00,42.1,15.1,29.78,WNW,292,1.0,6.0,33,0.00,,,0.00,VWS V14.01,2013-03-15 19:30:00,
2013-03-15 15:40:00,42.6,14.1,29.77,NNW,338,1.0,9.0,31,0.00,,,0.00,VWS V14.01,2013-03-15 19:40:00,
2013-03-15 15:50:00,42.6,15.5,29.77,WNW,292,3.0,11.0,33,0.00,,,0.00,VWS V14.01,2013-03-15 19:50:00,
2013-03-15 16:00:00,42.0,14.3,29.77,SSW,202,3.0,9.0,32,0.00,,,0.00,VWS V14.01,2013-03-15 20:00:00,
2013-03-15 16:10:00,42.3,15.3,29.76,WNW,292,1.0,6.0,33,0.00,,,0.00,VWS V14.01,2013-03-15 20:10:00,
2013-03-15 16:20:00,42.2,16.5,29.75,South,180,2.0,8.0,35,0.00,,,0.00,VWS V14.01,2013-03-15 20:20:00,
2013-03-15 16:30:00,42.9,17.8,29.75,NNW,338,2.0,9.0,36,0.00,,,0.00,VWS V14.01,2013-03-15 20:30:00,
2013-03-15 16:40:00,42.8,17.7,29.74,SSE,158,2.0,11.0,36,0.00,,,0.00,VWS V14.01,2013-03-15 20:40:00,
2013-03-15 16:50:00,41.6,17.9,29.75,SSW,202,3.0,9.0,38,0.00,,,0.00,VWS V14.01,2013-03-15 20:50:00,
2013-03-15 17:00:00,41.4,19.5,29.75,SSW,202,2.0,8.0,41,0.00,,,0.00,VWS V14.01,2013-03-15 21:00:00,
2013-03-15 17:10:00,41.0,19.7,29.75,South,180,2.0,8.0,42,0.00,,,0.00,VWS V14.01,2013-03-15 21:10:00,
2013-03-15 17:20:00,40.5,21.4,29.75,SSW,202,3.0,13.0,46,0.00,,,0.00,VWS V14.01,2013-03-15 21:20:00,
2013-03-15 17:30:00,40.1,20.5,29.74,SSE,158,3.0,14.0,45,0.00,,,0.00,VWS V14.01,2013-03-15 21:30:00,
2013-03-15 17:40:00,39.9,21.8,29.74,South,180,3.0,13.0,48,0.00,,,0.00,VWS V14.01,2013-03-15 21:40:00,
2013-03-15 17:50:00,39.7,22.6,29.75,NNW,338,3.0,9.0,50,0.00,,,0.00,VWS V14.01,2013-03-15 21:50:00,
2013-03-15 18:00:00,39.4,22.8,29.75,SSE,158,2.0,9.0,51,0.00,,,0.00,VWS V14.01,2013-03-15 22:00:00,
2013-03-15 18:10:00,39.0,22.9,29.75,NW,315,2.0,7.0,52,0.00,,,0.00,VWS V14.01,2013-03-15 22:10:00,
2013-03-15 18:20:00,38.7,23.5,29.75,SE,135,1.0,6.0,54,0.00,,,0.00,VWS V14.01,2013-03-15 22:20:00,
2013-03-15 18:30:00,38.5,24.2,29.75,ESE,112,1.0,7.0,56,0.00,,,0.00,VWS V14.01,2013-03-15 22:30:00,
2013-03-15 18:40:00,38.2,24.3,29.75,ENE,68,1.0,6.0,57,0.00,,,0.00,VWS V14.01,2013-03-15 22:40:00,
2013-03-15 18:50:00,38.0,24.5,29.76,South,180,1.0,10.0,58,0.00,,,0.00,VWS V14.01,2013-03-15 22:50:00,
2013-03-15 19:00:00,37.9,25.3,29.75,SSW,202,2.0,12.0,60,0.00,,,0.00,VWS V14.01,2013-03-15 23:00:00,
2013-03-15 19:10:00,37.6,25.4,29.75,ENE,68,1.0,8.0,61,0.00,,,0.00,VWS V14.01,2013-03-15 23:10:00,
2013-03-15 19:20:00,37.1,25.7,29.75,East,90,1.0,8.0,63,0.00,,,0.00,VWS V14.01,2013-03-15 23:20:00,
2013-03-15 19:30:00,36.9,25.9,29.76,NW,315,1.0,7.0,64,0.00,,,0.00,VWS V14.01,2013-03-15 23:30:00,
2013-03-15 19:40:00,36.6,26.3,29.76,SW,225,2.0,10.0,66,0.00,,,0.00,VWS V14.01,2013-03-15 23:40:00,
2013-03-15 19:50:00,36.6,26.7,29.77,WSW,248,1.0,11.0,67,0.00,,,0.00,VWS V14.01,2013-03-15 23:50:00,
2013-03-15 20:00:00,36.3,26.8,29.77,ESE,112,1.0,10.0,68,0.00,,,0.00,VWS V14.01,2013-03-16 00:00:00,
2013-03-15 20:10:00,36.1,27.3,29.77,NNW,338,1.0,6.0,70,0.00,,,0.00,VWS V14.01,2013-03-16 00:10:00,
2013-03-15 20:20:00,36.0,27.2,29.77,NNW,338,0.0,8.0,70,0.00,,,0.00,VWS V14.01,2013-03-16 00:20:00,
2013-03-15 20:30:00,36.1,27.6,29.77,SSW,202,1.0,5.0,71,0.00,,,0.00,VWS V14.01,2013-03-16 00:30:00,
2013-03-15 20:40:00,36.0,27.5,29.77,West,270,0.0,9.0,71,0.00,,,0.00,VWS V14.01,2013-03-16 00:40:00,
2013-03-15 20:50:00,35.9,27.4,29.77,North,0,1.0,6.0,71,0.00,,,0.00,VWS V14.01,2013-03-16 00:50:00,
2013-03-15 21:00:00,35.5,27.4,29.77,NNW,338,0.0,3.0,72,0.00,,,0.00,VWS V14.01,2013-03-16 01:00:00,
2013-03-15 21:10:00,35.1,27.3,29.77,North,0,0.0,5.0,73,0.00,,,0.00,VWS V14.01,2013-03-16 01:10:00,
2013-03-15 21:20:00,34.9,27.1,29.77,NNE,22,0.0,4.0,73,0.00,,,0.00,VWS V14.01,2013-03-16 01:20:00,
2013-03-15 21:30:00,34.4,27.3,29.77,NE,45,0.0,3.0,75,0.00,,,0.00,VWS V14.01,2013-03-16 01:30:00,
2013-03-15 21:40:00,34.2,27.4,29.77,West,270,0.0,3.0,76,0.00,,,0.00,VWS V14.01,2013-03-16 01:40:00,
2013-03-15 21:50:00,34.1,27.7,29.76,WSW,248,0.0,3.0,77,0.00,,,0.00,VWS V14.01,2013-03-16 01:50:00,
2013-03-15 22:00:00,34.1,27.7,29.76,SSW,202,1.0,8.0,77,0.00,,,0.00,VWS V14.01,2013-03-16 02:00:00,
2013-03-15 22:10:00,33.7,27.6,29.76,SW,225,0.0,2.0,78,0.00,,,0.00,VWS V14.01,2013-03-16 02:10:00,
2013-03-15 22:20:00,33.4,27.3,29.76,South,180,0.0,2.0,78,0.00,,,0.00,VWS V14.01,2013-03-16 02:20:00,
2013-03-15 22:30:00,33.6,27.5,29.76,SE,135,1.0,6.0,78,0.00,,,0.00,VWS V14.01,2013-03-16 02:30:00,
2013-03-15 22:40:00,33.6,27.5,29.76,North,0,0.0,6.0,78,0.00,,,0.00,VWS V14.01,2013-03-16 02:40:00,
2013-03-15 22:50:00,33.5,27.7,29.77,WNW,292,0.0,4.0,79,0.00,,,0.00,VWS V14.01,2013-03-16 02:50:00,
2013-03-15 23:00:00,33.4,27.6,29.77,WNW,292,0.0,2.0,79,0.00,,,0.00,VWS V14.01,2013-03-16 03:00:00,
2013-03-15 23:10:00,33.3,27.5,29.77,SE,135,0.0,4.0,79,0.00,,,0.00,VWS V14.01,2013-03-16 03:10:00,
2013-03-15 23:20:00,33.2,27.7,29.77,SE,135,0.0,4.0,80,0.00,,,0.00,VWS V14.01,2013-03-16 03:20:00,
2013-03-15 23:30:00,33.3,27.8,29.77,NW,315,1.0,8.0,80,0.00,,,0.00,VWS V14.01,2013-03-16 03:30:00,
2013-03-15 23:40:00,34.1,28.0,29.77,North,0,2.0,10.0,78,0.00,,,0.00,VWS V14.01,2013-03-16 03:40:00,
2013-03-15 23:50:00,34.5,28.0,29.78,WNW,292,1.0,10.0,77,0.00,,,0.00,VWS V14.01,2013-03-16 03:50:00,